User: anonymous   Login
Location: Unspecified
(51.0950°N, 12.9690°E)
Time: 17:25:15
(UTC+00:00)
Language:

CAS-4B - Orbit

View from above orbital plane
View from above orbital plane
View from above satellite
View from above satellite

Ground track
Ground track

The orbit data is extracted from the following two-line orbital elements,

1 42759U 17034B   24107.16826579  .00023473  00000-0  91242-3 0  9990
2 42759  43.0140 216.4234 0013806 297.5917  62.3532 15.25531855377920
Epoch (UTC): 16 April 2024 04:02:18
Eccentricity: 0.0013806
inclination: 43.0140°
perigee height: 480 km
apogee height: 498 km
right ascension of ascending node: 216.4234°
argument of perigee: 297.5917°
revolutions per day: 15.25531855
mean anomaly at epoch: 62.3532°
orbit number at epoch: 37792

The dashed part of the orbit path shows where the satellite is in the earth's shadow,  

DLR